Theta_e
331 332 331 338 339 335 334 332 336 337 333 335 333 328 325 323 322 326 328 327 331 332 331 332 329 328 330 329 329 328 329 332 331 332 333 333 333 331 332 333 334 334 333 333 332 330 329 328 327 327 328 327 323 321 321 322 322 322 323 323 322 323 321 319 321 321 318 318 319 320 319 318 317 317 318 317 317 318 316 316 318 318 317 316 315 315
334 333 330 333 335 332 332 332 332 332 332 334 332 329 325 323 325 327 329 328 331 331 328 331 331 328 329 329 329 328 328 331 331 331 332 332 332 331 332 332 333 334 333 333 331 330 330 328 328 328 329 328 325 321 321 322 323 323 323 322 321 322 321 318 319 321 319 318 318 318 318 318 317 316 317 317 317 317 317 316 317 317 317 316 315 315
341 335 331 330 331 330 331 331 331 331 332 332 331 328 323 323 327 327 329 330 330 330 329 332 330 328 329 328 328 328 328 329 329 330 330 331 332 331 331 333 334 335 334 333 331 329 329 329 329 330 330 329 327 323 321 321 323 323 322 322 321 320 320 318 319 320 320 319 319 317 317 317 317 317 317 317 316 316 317 316 316 317 316 316 315 314
336 331 328 331 330 331 332 331 331 331 333 333 332 328 323 326 329 325 326 331 331 329 330 332 329 326 329 328 327 328 327 328 329 328 329 330 331 330 331 333 335 335 335 334 332 330 329 329 330 331 330 329 328 324 320 320 321 321 321 322 321 320 319 318 319 320 319 319 320 319 318 317 317 318 318 317 316 316 317 316 316 316 316 316 315 314
331 329 329 330 329 331 332 332 333 330 328 331 332 330 325 326 328 324 326 331 329 329 330 329 324 323 328 328 327 328 328 328 328 328 329 329 329 330 331 332 334 335 336 335 333 330 330 330 332 332 331 330 328 324 320 319 320 321 321 321 321 319 319 319 319 320 320 319 320 320 319 319 318 318 317 317 317 316 316 316 315 315 315 315 315 315
328 328 330 330 330 331 331 332 333 329 327 329 330 331 330 330 328 327 331 330 327 328 329 327 322 321 327 329 327 326 327 328 328 328 329 329 329 330 330 332 333 334 335 336 333 331 331 331 333 333 331 330 328 325 320 319 320 321 321 322 321 320 319 319 319 319 320 320 319 319 319 319 319 318 317 317 317 316 316 316 316 315 315 315 315 315
328 328 330 330 330 331 331 331 331 331 328 325 328 331 332 335 335 333 332 329 326 325 328 330 325 319 322 328 330 330 329 328 327 328 329 328 329 329 330 331 332 335 335 335 334 331 331 333 334 333 332 331 329 325 320 318 320 320 320 321 321 319 319 320 319 318 319 319 319 319 319 318 318 318 317 317 316 316 316 316 316 316 315 315 315 315
329 329 329 330 330 331 330 329 330 333 327 322 328 332 332 335 337 337 336 334 333 332 331 331 326 323 323 327 332 333 332 332 329 330 330 328 330 330 329 331 332 333 334 333 333 333 332 334 335 333 332 330 328 325 321 320 319 320 320 320 320 319 318 318 319 318 318 319 319 319 319 318 318 318 317 317 316 316 316 316 316 316 315 315 315 315
328 329 329 330 330 328 327 328 330 330 327 326 329 332 331 333 334 335 337 336 336 337 336 333 325 326 324 327 337 336 331 334 335 333 333 330 328 329 328 330 331 331 332 331 332 333 333 335 335 334 332 330 328 326 323 320 319 319 320 319 320 320 319 318 319 318 318 319 318 318 319 318 317 317 316 316 316 315 316 316 316 316 315 315 315 315
325 327 328 330 330 327 326 328 328 328 329 329 331 331 331 333 333 334 334 331 329 331 333 329 323 328 326 325 336 337 330 336 340 336 336 334 328 328 329 330 330 329 330 330 331 332 334 336 336 333 332 330 328 326 322 319 318 319 320 320 321 320 319 319 319 318 318 318 318 317 318 318 317 316 315 316 316 315 315 316 316 315 315 315 315 315
325 327 326 327 329 328 327 328 328 329 330 331 333 331 330 332 334 334 331 329 326 324 325 322 320 329 328 323 328 332 329 337 342 337 336 336 331 328 330 329 329 328 329 330 330 331 334 336 335 334 332 330 328 326 322 320 319 319 319 320 320 319 318 318 318 319 319 318 317 317 317 316 316 316 316 316 316 316 315 315 315 315 315 315 315 315
326 328 326 325 325 327 329 328 328 330 330 331 332 331 329 327 329 332 327 327 328 323 321 322 322 325 324 321 326 333 331 332 338 336 335 337 333 328 329 329 328 328 328 329 329 332 335 336 336 334 332 330 328 326 323 321 319 319 320 319 319 320 319 318 318 318 318 318 317 317 317 316 315 316 316 316 316 316 315 315 315 315 315 315 314 314
327 326 324 325 326 327 328 327 327 329 329 330 328 328 329 324 322 327 326 330 334 328 322 323 325 325 324 324 328 335 334 331 333 333 333 334 332 329 330 329 329 329 328 328 331 335 336 337 336 334 333 331 329 327 325 321 319 319 320 320 320 319 319 319 318 317 316 317 317 317 318 317 316 315 316 316 316 315 315 314 315 314 315 315 314 314
323 325 326 327 326 325 327 324 322 324 327 328 324 323 326 323 322 325 328 332 334 326 322 324 325 324 325 327 329 333 332 331 332 331 331 331 330 330 330 329 329 330 330 331 334 336 336 337 336 335 334 331 330 329 325 321 319 318 320 321 320 319 319 318 318 318 317 316 316 317 317 317 317 316 315 315 315 315 314 314 314 314 314 314 314 314
316 318 322 325 324 324 327 324 322 325 328 329 329 326 321 319 321 323 323 325 328 324 322 323 322 322 323 327 328 330 330 330 331 330 329 330 329 330 331 330 330 330 332 332 333 333 335 337 337 335 334 332 331 329 326 322 319 319 321 321 319 318 319 319 318 319 318 316 316 316 316 315 315 315 315 315 314 314 313 314 314 314 314 314 314 314
314 315 321 324 323 324 326 323 324 324 322 327 331 325 317 318 324 323 319 320 325 325 321 319 320 325 328 330 330 330 329 329 329 329 329 329 329 329 331 333 331 330 331 331 331 332 333 336 337 336 335 333 331 329 326 322 319 319 321 321 319 318 318 319 319 318 318 316 316 316 316 316 315 314 315 315 314 313 313 313 314 314 314 314 313 314
313 315 324 324 323 325 324 323 326 322 319 323 322 318 319 324 327 322 318 319 320 320 319 318 321 326 329 329 329 329 329 329 329 328 328 329 331 331 333 334 331 330 332 331 330 332 332 334 336 337 335 334 332 329 327 323 320 320 321 321 319 318 317 318 318 318 317 317 316 316 316 315 315 314 314 314 314 314 313 313 313 313 313 313 313 313
317 315 323 325 323 325 324 323 326 325 323 321 316 317 323 326 324 321 319 318 317 318 319 317 318 321 322 324 331 332 328 329 329 328 328 329 331 331 332 333 332 336 339 335 331 333 334 334 336 337 336 334 332 330 327 324 321 321 321 320 319 318 317 318 318 318 317 317 317 316 315 315 315 315 314 314 314 314 314 313 313 313 313 313 313 313
320 313 320 325 324 324 324 324 324 326 327 323 321 324 323 319 318 317 316 316 316 318 319 316 315 317 317 323 334 335 328 329 329 328 329 329 330 330 330 331 334 340 342 337 332 334 334 334 336 337 336 334 332 330 328 324 322 321 321 320 319 317 317 317 317 317 317 316 316 315 315 315 315 314 314 314 314 314 314 314 313 313 313 313 313 313
323 316 316 324 326 323 323 323 319 320 326 325 325 327 324 320 318 317 318 318 315 315 316 316 315 316 320 327 333 331 329 329 329 329 329 329 329 329 330 331 333 338 339 335 332 333 333 334 337 337 335 334 332 330 328 324 321 321 321 320 319 318 317 317 316 316 316 315 315 315 315 315 315 314 313 313 314 313 313 313 313 312 312 312 312 313
325 319 314 321 325 321 320 323 320 319 321 321 320 320 321 322 321 320 320 316 315 315 316 318 316 315 323 329 328 328 330 329 329 330 329 329 329 329 333 336 335 336 337 334 333 333 334 336 337 336 335 334 332 330 327 323 320 320 320 320 319 317 316 316 317 317 316 315 315 315 315 315 315 315 314 314 314 314 313 313 312 312 312 312 312 312
323 320 315 316 319 316 319 324 323 322 322 321 320 318 319 320 318 318 317 315 315 315 316 318 317 316 323 329 328 328 329 328 329 330 329 330 330 330 336 340 340 339 338 337 336 334 335 335 334 334 335 333 332 329 326 324 320 319 319 319 317 316 315 315 316 317 315 315 315 315 315 315 315 314 314 314 314 314 313 313 313 312 312 312 312 312
326 323 316 314 317 319 323 325 322 323 324 323 322 323 323 322 317 313 314 317 316 315 316 316 315 319 327 328 329 329 328 327 328 330 330 330 331 332 334 337 340 341 338 337 336 334 334 333 332 332 333 332 332 329 326 324 320 318 319 318 316 315 315 314 316 316 316 315 315 315 315 315 315 314 314 314 313 313 313 313 313 312 312 312 311 311
327 322 316 314 319 322 324 324 324 325 324 323 323 325 323 321 320 318 318 320 318 315 316 315 314 320 328 327 328 329 329 328 328 330 330 331 333 334 333 333 336 340 339 336 335 336 335 333 332 332 331 332 331 328 326 324 320 319 319 318 316 315 315 314 315 316 316 315 315 315 316 315 315 315 315 314 313 313 313 313 312 312 312 312 311 311
323 320 317 313 315 317 318 320 323 324 324 322 324 325 324 321 323 323 321 321 318 315 315 316 316 321 327 327 327 328 329 329 329 329 330 333 336 334 334 335 338 342 342 339 337 337 336 334 333 332 331 332 330 327 326 324 319 319 319 317 316 315 315 315 315 315 315 315 315 315 315 315 315 315 314 314 313 313 313 313 313 312 311 312 311 311
323 324 320 314 313 315 314 315 317 320 322 323 324 324 324 323 323 322 318 316 315 315 316 316 317 321 327 328 326 328 330 328 329 331 330 332 335 335 336 339 340 345 346 346 344 341 339 336 333 332 332 331 329 327 326 324 319 318 318 317 315 315 315 314 315 315 315 314 315 315 315 315 315 314 314 314 313 313 312 312 312 313 311 311 311 311
326 327 324 318 316 316 315 317 322 323 319 317 319 321 323 325 324 323 318 315 316 317 316 316 319 320 323 327 327 329 331 328 329 332 330 331 334 334 336 337 339 345 346 347 347 342 339 338 335 333 332 331 329 327 327 323 319 318 318 317 315 314 314 314 315 315 314 314 314 314 315 316 315 314 314 313 313 313 312 311 311 312 311 311 311 311
324 321 324 323 320 320 321 321 324 324 319 316 317 319 321 324 325 322 318 319 321 318 315 320 323 320 321 327 329 330 331 329 330 330 329 332 333 332 335 336 337 340 339 338 339 338 337 336 336 335 333 331 329 327 327 323 320 318 318 317 316 314 313 314 315 315 315 315 314 314 315 315 314 314 313 312 312 312 311 311 311 311 311 311 311 310
325 320 324 324 321 323 325 324 325 324 321 320 320 319 320 321 321 320 320 323 324 319 317 323 325 322 324 328 330 331 331 328 329 330 329 331 331 330 334 335 335 337 337 336 337 339 339 337 338 338 334 331 329 328 327 324 320 319 318 317 316 314 314 315 315 316 316 315 314 314 314 313 313 313 312 312 312 311 311 311 311 311 311 311 311 310
327 322 326 325 321 322 325 325 326 323 321 320 320 320 322 321 321 321 322 324 326 322 323 327 326 325 328 330 330 331 330 328 330 331 330 329 331 331 332 333 333 333 334 336 339 341 341 339 338 338 335 332 329 328 328 324 321 319 318 317 316 315 314 315 315 316 316 315 314 313 313 313 313 312 311 312 312 310 310 310 310 311 311 311 311 310
328 324 328 327 321 320 325 325 324 324 321 319 319 321 322 322 322 322 323 326 325 324 327 329 325 326 330 331 331 331 331 331 331 332 332 331 333 334 333 333 335 333 332 333 338 341 341 340 338 337 335 332 330 329 328 324 321 320 319 317 316 315 314 314 315 316 316 315 314 312 311 311 311 312 312 311 310 310 310 310 310 311 311 311 311 310
331 328 329 326 318 317 322 323 322 323 322 317 318 321 321 321 322 323 324 326 325 324 326 325 323 327 332 330 330 331 331 333 332 332 334 332 332 334 334 332 333 333 331 332 335 338 338 338 338 338 335 333 330 329 328 324 322 321 319 318 317 315 313 313 315 315 315 315 314 312 311 310 311 311 311 310 310 309 309 310 310 311 311 311 311 310
331 329 326 323 318 317 322 323 321 321 319 317 319 323 324 325 325 324 325 327 327 328 325 322 324 331 332 329 330 331 331 333 332 332 334 334 333 333 332 331 331 330 332 333 334 334 335 336 338 338 336 334 331 330 328 325 322 322 320 319 317 315 313 313 315 315 315 315 313 312 311 310 311 311 310 309 309 309 309 310 311 311 310 310 310 310
331 329 327 324 319 316 321 324 322 320 318 319 325 327 327 326 326 325 325 325 327 327 326 325 328 331 330 329 331 332 331 333 332 331 333 334 335 333 331 331 331 330 334 336 335 336 337 337 338 338 337 335 332 330 329 325 323 322 321 319 318 315 313 313 314 315 315 314 313 313 311 310 310 310 310 309 308 308 309 310 310 310 310 310 309 309
330 329 328 326 321 318 321 322 319 318 320 325 329 329 328 328 327 326 325 325 326 325 325 325 326 330 331 330 331 331 331 332 331 331 332 332 334 334 332 331 332 332 335 336 337 341 340 338 337 339 337 335 333 331 329 326 324 323 322 320 319 316 313 313 314 314 315 314 313 313 312 311 310 310 309 308 308 309 309 309 309 309 310 310 309 309
329 329 327 324 322 320 318 317 318 321 324 327 330 329 328 330 329 327 325 325 327 326 327 326 327 329 331 329 330 331 331 331 331 331 331 331 332 333 331 332 333 332 334 336 338 341 339 336 337 339 338 335 334 331 329 327 325 323 322 321 319 316 314 313 313 314 314 314 313 313 312 311 310 310 309 308 308 309 309 308 309 309 309 309 308 308
328 328 325 323 322 321 317 315 318 321 322 325 330 331 330 330 330 329 325 327 328 327 327 329 328 329 330 329 330 331 331 332 333 332 331 330 330 330 331 331 332 331 333 335 336 337 338 337 338 339 337 335 334 332 329 327 325 324 323 322 320 318 315 314 313 314 314 314 314 313 312 311 310 309 308 308 308 309 308 308 309 309 308 308 308 307
327 328 327 323 321 321 317 316 319 319 319 323 330 334 333 329 330 331 326 326 332 331 327 328 328 328 330 330 330 331 331 333 334 334 333 332 331 330 330 330 330 331 332 333 334 335 337 338 339 339 337 335 334 332 330 327 326 325 324 322 321 319 317 315 313 314 314 314 314 313 312 311 310 309 308 308 308 308 308 308 309 308 308 308 307 307
327 329 329 325 320 320 318 317 319 318 318 325 331 334 332 328 330 330 323 323 334 337 332 332 332 331 332 332 331 331 331 332 334 335 334 335 333 332 330 329 330 332 331 331 333 335 336 338 340 339 337 335 334 332 330 327 326 325 325 323 322 321 318 316 314 314 314 314 314 313 312 311 310 309 308 308 308 308 308 308 308 308 308 308 307 306
328 329 329 324 320 319 319 319 319 318 322 330 331 330 329 329 329 326 321 324 337 340 336 337 337 336 336 334 332 333 334 334 336 335 334 335 335 333 331 331 331 332 332 332 334 335 336 337 338 338 337 335 333 332 329 328 327 326 325 324 323 321 320 318 315 314 314 314 314 312 312 311 310 309 308 308 308 307 307 307 307 307 307 307 306 305
327 327 326 324 320 319 319 319 319 321 330 338 334 329 330 329 326 324 325 333 340 339 337 339 338 337 337 336 334 334 335 335 335 334 333 334 334 333 333 333 332 332 333 334 333 333 334 336 336 337 337 335 334 332 330 328 327 327 326 326 324 323 321 319 316 314 314 314 313 312 312 311 310 308 308 308 308 307 306 306 306 306 306 306 305 305
325 324 324 323 321 320 320 320 319 322 333 339 333 328 329 328 326 329 335 340 339 336 337 337 336 336 337 336 335 335 334 333 333 333 333 333 334 335 334 334 333 333 334 334 332 331 332 334 335 335 336 335 334 332 330 328 327 327 327 327 325 324 322 320 317 315 314 314 313 313 312 311 310 308 308 308 307 306 305 306 305 305 306 306 306 306
325 323 321 322 323 321 320 320 320 325 334 336 332 333 334 331 331 336 339 338 336 335 335 334 334 335 334 334 335 334 333 332 332 332 331 331 332 333 333 333 333 332 332 333 332 330 330 332 334 334 334 335 334 333 331 329 328 328 327 327 327 325 323 321 318 316 314 314 314 312 311 311 310 309 309 309 307 306 305 305 305 305 305 305 306 306
326 324 321 323 326 323 320 323 327 331 335 335 335 338 339 336 336 337 336 335 334 334 333 332 333 332 332 333 333 332 332 331 330 330 330 329 329 330 330 331 331 330 330 330 331 332 330 329 331 332 333 334 334 333 332 330 328 328 328 328 328 326 324 321 318 316 315 314 313 312 311 311 310 309 309 309 307 306 305 305 304 304 304 304 305 305
328 330 328 328 328 325 325 329 333 333 333 334 335 337 337 335 334 334 333 333 333 332 332 332 331 330 329 330 330 330 330 330 328 328 328 328 328 328 328 328 328 329 329 328 329 331 330 330 331 331 332 333 333 332 332 330 329 328 328 328 328 327 324 321 319 317 316 314 313 313 312 311 309 309 310 309 307 306 306 305 304 303 304 304 304 304
330 334 334 332 330 327 327 330 332 332 332 332 332 332 333 332 332 332 331 331 331 330 329 329 329 328 327 328 328 329 329 328 326 327 327 327 327 328 328 328 327 327 328 328 327 327 327 328 330 331 331 333 333 332 332 330 329 329 328 328 328 327 324 321 320 318 317 315 314 313 312 311 310 310 311 309 307 307 306 305 304 303 303 303 303 304
328 329 330 330 328 326 326 328 330 331 331 331 330 330 330 329 329 329 330 328 328 327 326 327 327 327 326 327 327 327 326 326 325 325 325 325 326 326 327 327 326 326 326 325 325 325 325 326 327 328 329 330 332 333 332 331 330 329 329 329 328 327 324 322 321 319 317 315 314 313 312 312 310 310 311 309 308 307 306 305 304 303 303 303 303 304
328 326 327 328 327 326 327 329 331 330 329 330 329 328 329 328 327 327 327 326 325 325 325 325 326 325 325 326 326 325 325 324 324 324 324 323 324 324 325 325 325 325 325 324 324 324 324 325 324 324 325 325 326 329 331 332 331 330 329 329 329 328 326 324 322 320 318 316 314 313 313 313 311 310 311 310 308 307 307 305 304 304 303 303 303 304
327 326 326 326 326 326 327 328 329 329 329 329 328 328 328 328 327 326 325 324 323 323 323 323 323 323 323 324 324 325 324 324 325 325 324 323 323 324 324 324 324 324 324 324 324 323 324 323 323 322 323 323 323 325 328 330 331 330 329 329 328 328 328 326 323 321 318 316 315 313 313 313 311 310 311 310 308 308 307 306 305 304 303 303 303 304
327 326 326 326 325 326 327 327 327 328 328 328 328 328 327 327 326 326 325 324 323 322 322 322 322 322 322 323 324 324 323 323 324 324 323 324 324 325 325 324 323 324 323 323 324 324 323 323 322 322 322 322 322 323 324 326 328 329 329 329 328 328 328 327 324 321 318 317 315 314 313 313 311 311 311 310 308 308 307 305 305 305 304 303 303 303
326 326 327 326 325 326 326 327 327 326 326 326 326 326 326 325 326 325 325 323 322 322 322 322 322 321 321 321 321 322 321 322 323 323 323 323 323 324 324 323 323 324 324 324 324 323 323 322 322 322 322 322 321 322 323 324 325 327 329 328 328 328 328 326 324 321 318 317 316 314 313 313 312 311 311 309 308 307 305 303 303 304 303 302 302 302
Wind_Speed
3 1 2 2 3 3 6 7 6 3 3 5 4 4 2 4 4 8 9 6 5 4 5 6 6 10 11 11 11 11 10 8 8 8 7 7 7 5 6 7 7 6 6 9 11 11 11 11 10 9 9 7 7 6 5 5 6 6 6 6 6 6 7 8 9 9 9 9 8 8 8 7 8 8 8 10 10 9 11 12 11 12 12 12 15 14
2 1 1 3 7 7 5 4 6 7 5 5 4 6 3 4 5 8 9 7 4 1 4 1 2 7 10 10 11 11 10 9 9 9 8 9 8 7 7 8 8 7 7 10 11 11 12 11 10 10 9 8 8 6 5 5 5 5 5 6 6 6 7 8 8 8 8 8 8 8 8 8 7 7 8 8 9 7 9 11 11 12 12 12 14 15
2 1 4 9 10 7 6 7 8 6 5 5 3 4 2 4 4 7 9 9 4 1 2 2 2 5 9 9 10 10 9 8 9 10 8 8 8 7 7 8 8 8 8 9 10 12 13 12 11 10 9 8 7 6 6 6 4 5 5 5 5 6 6 7 7 7 7 6 5 6 6 7 6 6 5 5 8 7 7 11 11 10 12 13 13 14
1 3 8 9 7 5 4 5 5 3 2 2 0 2 2 2 2 3 7 8 6 2 3 3 4 4 8 8 8 8 8 8 8 10 9 9 8 7 7 8 9 9 9 8 8 11 12 12 11 10 9 8 7 6 5 5 4 5 5 4 5 5 5 6 7 7 6 5 4 3 2 3 4 5 6 5 8 8 7 11 11 9 11 12 13 14
4 7 7 7 5 4 4 4 6 3 2 2 2 1 3 1 3 3 5 3 4 4 3 4 3 3 5 5 7 6 5 6 7 8 9 9 8 7 6 8 9 9 9 7 7 10 10 11 11 10 10 8 7 7 5 5 4 5 5 4 4 5 5 6 6 6 6 6 6 5 4 3 3 6 7 8 8 8 9 10 9 9 10 11 13 14
5 5 4 6 5 2 3 2 4 5 4 2 4 7 6 3 7 6 8 3 1 3 1 2 2 3 4 3 5 6 5 6 5 6 7 8 8 7 6 7 7 8 10 8 7 9 10 11 12 11 10 9 7 7 6 6 5 5 5 4 4 5 4 5 6 6 5 6 7 7 7 6 6 7 7 6 7 8 9 9 7 7 9 10 12 13
3 4 4 5 7 5 2 2 2 3 4 3 3 4 0 10 11 7 7 5 2 1 2 1 1 3 5 2 6 4 2 7 6 5 7 6 6 7 6 6 6 7 8 6 6 9 10 11 12 11 10 9 8 7 7 7 6 6 6 5 5 5 4 4 5 6 6 6 6 6 6 6 6 6 4 4 5 5 6 7 9 7 7 9 11 12
3 3 5 4 6 4 2 2 2 3 2 4 6 7 8 13 11 2 6 5 2 2 4 4 3 2 4 4 8 8 3 3 4 3 5 6 6 6 7 8 7 7 8 6 6 9 10 11 12 11 10 9 9 8 7 7 7 6 6 5 5 5 5 5 5 6 6 6 6 6 5 5 5 5 4 4 4 5 5 6 8 10 8 9 10 11
3 3 4 4 4 2 4 5 8 6 4 7 9 9 10 10 7 5 5 1 3 2 2 4 3 3 3 4 5 8 5 4 6 5 2 4 8 5 5 9 8 8 10 7 7 8 10 12 13 11 10 11 10 8 7 8 7 7 6 6 6 5 5 5 5 5 5 5 5 6 6 5 5 5 6 5 3 5 5 5 5 8 8 9 9 10
5 6 4 4 1 4 7 7 9 8 6 8 9 6 7 6 5 5 4 1 0 3 1 1 2 2 3 2 4 5 2 2 5 6 6 6 3 7 5 7 8 7 9 8 8 10 11 13 13 12 12 11 10 8 7 8 8 7 6 6 6 6 5 5 4 5 5 5 5 6 6 6 6 5 5 5 3 4 5 5 6 5 6 8 9 9
4 2 1 2 2 5 7 5 6 7 7 8 8 5 3 3 3 4 4 2 2 3 5 4 4 3 2 2 2 1 2 5 0 1 4 9 4 7 6 5 8 7 8 9 9 11 14 15 15 13 13 12 10 9 8 8 8 7 7 6 6 6 5 5 4 4 4 5 5 5 5 6 7 6 5 5 5 5 6 6 7 6 6 7 8 9
3 3 1 3 4 2 3 4 3 7 8 5 2 2 2 1 3 3 3 1 1 5 6 4 6 6 3 3 3 2 6 9 6 4 4 5 6 4 5 4 7 7 8 10 10 11 12 13 14 14 13 12 11 10 9 8 8 8 8 7 6 6 5 5 5 4 4 4 4 4 5 6 7 7 6 6 5 6 7 7 7 8 8 8 7 8
1 2 1 2 2 1 2 2 3 5 4 1 1 2 2 1 2 3 3 3 2 1 2 1 3 5 3 2 3 5 9 9 5 6 8 8 5 5 4 2 4 6 8 10 10 11 10 10 12 14 14 13 12 11 9 9 9 8 8 8 7 6 5 5 5 5 5 5 5 5 5 5 6 6 6 6 6 5 6 6 6 8 11 10 8 8
1 3 1 1 2 1 4 3 2 3 1 2 2 1 2 0 2 3 3 2 1 3 2 3 3 2 1 3 1 9 11 6 4 7 8 5 2 5 4 3 3 4 8 10 10 11 9 10 13 14 15 14 12 11 11 9 9 8 9 9 8 7 6 6 5 5 5 5 5 5 5 5 5 6 5 6 5 5 6 6 5 6 8 11 11 9
2 1 1 2 3 0 3 2 2 4 1 5 6 4 1 1 2 3 2 3 1 3 2 4 3 2 2 2 3 9 10 4 3 6 7 6 5 4 5 6 4 5 9 11 10 10 10 11 14 15 15 14 13 13 12 10 9 9 9 9 8 8 7 6 5 5 5 5 5 5 5 6 6 6 5 5 4 4 6 6 6 6 6 8 11 9
2 1 3 3 1 3 4 4 3 4 2 1 4 4 1 5 2 3 4 4 5 2 1 3 3 2 1 4 3 6 10 4 1 6 7 6 6 4 6 7 4 4 8 10 9 9 11 13 14 14 15 14 14 14 13 11 11 10 10 10 9 8 8 7 6 5 5 5 5 5 5 5 5 6 5 5 4 3 4 5 6 7 7 7 8 9
2 2 2 2 4 2 4 6 5 4 4 3 2 2 3 5 3 3 3 3 5 3 2 2 3 2 1 1 2 4 10 5 3 6 7 7 7 4 5 6 3 2 2 6 9 9 10 13 14 15 15 15 15 15 14 12 12 11 11 11 10 9 8 7 7 6 5 5 5 4 5 5 5 5 5 4 4 3 3 4 4 5 6 7 7 8
2 4 1 2 3 5 3 6 5 2 4 4 4 3 2 1 2 2 1 1 2 4 2 1 4 2 1 2 1 1 7 5 3 6 6 6 6 4 5 5 4 5 3 0 7 10 11 12 14 15 14 15 16 16 14 13 12 11 11 11 11 9 9 8 7 7 5 5 5 5 5 4 4 4 4 4 4 3 4 3 3 4 5 6 7 8
1 3 2 2 2 4 1 6 3 2 2 2 3 4 3 1 2 3 1 2 3 3 1 1 4 2 1 3 2 2 5 4 3 5 6 5 5 5 6 5 7 6 1 2 4 8 10 10 13 15 14 15 17 16 15 14 12 12 12 12 11 10 10 8 7 7 6 5 5 5 4 3 4 4 4 4 4 4 4 4 4 4 4 5 7 7
2 1 2 3 3 3 2 3 1 2 2 1 2 2 2 2 3 3 2 3 4 3 2 2 3 2 2 3 4 5 8 6 3 4 4 5 4 5 6 6 7 8 7 5 5 8 9 10 14 16 16 16 17 15 15 14 13 13 13 12 12 11 10 9 8 7 7 6 5 5 4 3 4 4 4 4 4 4 4 5 5 5 5 6 7 7
0 1 1 3 2 1 2 2 3 4 3 2 3 3 3 4 3 1 1 3 4 3 4 3 2 4 3 3 6 7 6 6 6 5 3 4 5 4 4 4 3 7 9 6 6 9 9 10 14 16 16 16 16 15 15 15 14 14 13 13 12 12 11 10 8 7 7 7 6 6 5 4 4 4 4 4 4 4 4 4 4 4 5 6 6 7
0 1 2 4 3 2 2 2 4 5 5 5 4 3 2 3 4 3 2 4 6 4 4 3 3 4 3 4 6 7 5 4 5 9 7 4 4 3 5 4 2 5 7 6 6 9 10 11 14 16 16 15 16 16 16 16 15 14 14 13 13 12 11 10 9 8 8 7 6 6 6 5 4 4 4 3 3 4 4 4 3 4 5 5 6 7
3 2 3 4 4 3 1 3 1 3 4 4 3 3 3 2 2 3 4 4 5 5 4 3 2 3 2 3 4 4 4 6 3 8 9 5 4 4 4 5 4 4 5 5 5 8 10 12 15 15 15 16 17 17 17 16 15 15 14 14 13 12 12 11 10 10 9 8 7 7 6 5 4 4 3 3 3 3 3 3 3 4 5 5 6 7
2 1 3 5 4 2 1 3 2 1 2 3 1 3 4 4 3 3 4 3 3 4 4 4 4 3 2 4 4 5 3 2 4 6 7 6 5 3 3 4 4 5 5 6 5 6 9 12 14 13 15 17 18 18 18 17 15 15 15 14 13 12 12 12 11 10 9 8 8 7 6 6 5 4 3 3 3 3 3 3 3 4 5 5 6 7
2 2 3 4 4 3 2 1 3 1 2 1 1 2 2 3 4 2 2 2 2 5 6 4 3 2 3 6 4 5 2 1 5 7 5 6 5 1 3 4 2 4 4 3 3 5 9 12 12 13 16 18 18 18 18 17 16 15 15 14 13 13 13 12 11 10 10 9 8 7 6 6 5 5 4 3 3 3 2 2 2 3 4 5 6 6
3 3 3 4 4 3 2 2 2 1 4 1 2 5 2 3 5 5 4 4 2 6 7 4 3 4 5 7 4 6 4 4 7 7 4 7 7 3 4 4 3 5 4 2 3 1 4 8 11 14 17 19 19 18 17 16 16 16 15 14 14 14 13 13 11 11 10 9 8 8 7 6 6 5 5 3 3 3 2 2 2 3 4 4 5 6
4 5 6 6 6 6 5 5 2 5 6 2 3 7 4 2 2 3 3 5 4 5 5 3 4 6 6 7 6 7 5 6 5 6 4 5 8 5 5 5 4 4 2 3 4 2 4 6 10 13 17 18 19 18 17 17 16 16 16 15 15 14 14 13 12 12 11 9 8 8 7 6 6 6 5 4 3 3 2 2 2 3 4 4 5 6
3 6 7 8 9 9 9 9 9 10 7 2 5 9 5 2 3 1 1 5 6 5 4 4 7 7 7 7 6 7 6 5 4 5 4 5 6 6 7 6 5 5 4 4 6 8 10 11 10 10 15 17 18 18 17 16 16 16 16 16 15 15 14 14 14 12 11 10 9 8 7 7 6 6 5 5 4 3 3 3 2 3 3 4 4 6
3 6 6 9 12 11 10 11 12 12 9 5 7 10 7 7 7 2 4 6 5 4 5 7 8 7 6 6 5 7 6 5 4 4 3 4 4 4 7 6 4 7 9 9 11 13 12 11 8 8 13 15 17 18 17 16 17 17 16 16 16 16 15 15 14 13 12 11 10 9 8 7 7 6 6 5 5 4 3 3 3 3 3 4 5 5
1 5 5 9 11 10 10 12 12 12 12 9 8 10 11 11 8 6 6 3 1 5 7 8 8 6 4 5 5 6 4 4 3 3 3 6 6 6 9 8 3 2 8 9 11 11 10 9 7 8 11 14 16 17 17 16 17 17 17 17 17 16 16 15 15 14 13 12 11 10 9 8 7 7 6 5 5 4 4 4 3 3 4 4 5 5
1 4 6 8 8 8 10 13 13 14 14 11 10 11 10 9 10 9 6 3 3 5 6 6 8 5 3 4 4 4 3 2 2 4 6 10 10 8 8 8 2 2 4 6 6 7 6 6 7 8 10 12 15 17 16 16 17 18 17 17 17 17 16 16 15 14 13 12 12 11 10 9 8 8 7 6 6 5 5 4 4 4 4 5 5 4
3 4 5 6 6 6 9 12 14 16 15 13 12 11 8 7 9 9 7 5 5 4 3 5 5 1 2 3 3 4 3 2 3 5 7 9 8 7 6 6 4 5 5 4 3 7 7 5 6 9 11 13 15 16 16 16 17 18 18 18 18 17 17 16 15 14 13 13 13 12 11 10 10 9 8 7 6 6 5 5 4 4 5 5 5 5
4 3 4 6 5 6 9 11 12 12 10 8 7 9 9 9 9 9 8 7 5 4 3 2 3 3 2 2 3 4 3 2 3 6 7 7 7 8 10 10 10 11 11 9 6 4 4 5 6 10 12 13 15 16 16 17 17 18 18 19 19 18 17 17 16 14 14 13 13 13 12 11 11 10 9 8 7 6 5 5 5 5 5 5 5 5
4 5 5 5 4 7 11 11 8 7 7 5 5 9 10 9 9 11 8 7 6 3 1 3 4 3 2 2 2 2 2 3 5 7 8 7 7 8 9 10 10 10 10 10 10 9 5 3 4 10 13 13 15 16 16 16 17 17 18 19 18 18 18 17 16 15 14 14 13 13 13 12 12 11 10 8 8 7 6 5 5 5 5 5 6 5
5 6 5 5 4 5 8 9 6 5 6 4 4 7 9 8 9 12 11 10 10 9 8 9 5 4 5 1 1 2 3 5 9 10 10 8 7 6 6 7 8 8 8 8 8 7 8 9 6 8 13 13 15 16 15 16 16 17 18 18 18 18 18 17 17 16 15 14 14 14 13 12 12 12 11 10 9 8 7 6 5 5 5 5 5 5
5 5 4 4 5 5 5 6 5 5 7 6 5 6 4 5 8 10 8 7 9 10 8 7 5 3 4 1 1 3 4 6 9 10 8 7 6 5 4 4 5 5 6 6 5 4 3 6 10 8 12 12 14 15 15 15 16 17 17 18 18 18 17 17 17 16 16 15 15 14 13 13 13 13 12 12 10 9 8 7 6 5 5 5 5 5
5 5 4 4 4 5 6 6 5 6 9 7 4 2 1 1 4 5 3 4 8 8 5 4 5 4 2 1 1 4 6 6 8 7 6 7 5 4 4 4 4 5 7 7 4 2 5 3 7 9 11 11 13 15 15 16 16 17 17 17 17 17 17 18 17 17 17 17 16 16 15 14 14 14 13 13 12 10 10 8 7 6 6 5 5 5
6 6 4 4 4 4 5 6 5 5 5 3 4 5 4 1 2 4 3 4 7 5 2 2 5 3 1 2 2 3 4 5 4 4 4 6 6 5 6 6 6 6 8 7 5 3 2 2 5 9 10 10 12 14 15 16 17 17 17 18 18 18 18 18 18 18 19 19 18 17 16 15 14 14 14 14 13 12 11 10 8 7 6 6 6 6
7 6 5 5 5 5 5 5 5 4 6 6 1 4 2 1 3 3 3 3 6 8 7 6 7 4 3 4 5 3 3 4 2 4 4 5 5 5 6 6 6 7 9 9 7 5 2 1 4 8 8 9 12 13 14 16 17 17 18 18 18 18 18 19 19 19 20 20 18 18 17 16 15 15 14 14 13 13 13 11 9 8 7 6 6 6
7 6 5 5 6 6 5 5 5 3 3 4 2 5 3 3 3 2 5 2 6 9 9 9 9 8 6 5 3 3 3 1 3 4 4 5 4 5 6 5 6 7 8 9 8 4 2 3 4 7 8 9 11 12 14 16 17 18 18 18 18 19 19 20 20 20 20 20 19 19 19 18 17 16 14 13 14 14 13 12 11 9 8 7 7 7
7 5 5 5 6 7 7 6 5 3 3 6 4 3 3 2 1 2 3 1 5 6 7 8 8 6 6 5 3 3 5 5 6 5 4 6 6 5 6 6 6 7 7 7 8 6 2 1 2 3 7 8 10 12 13 15 17 17 17 18 18 19 19 19 20 20 20 20 19 19 20 18 18 17 15 14 14 15 14 13 12 11 10 8 7 7
6 5 5 6 5 6 7 6 6 3 2 6 6 4 5 2 1 0 0 0 2 5 7 7 6 5 5 6 6 5 6 7 7 6 4 6 6 5 4 5 5 5 5 5 7 9 7 4 3 1 2 6 9 11 12 14 16 16 17 17 18 19 18 18 20 20 21 21 20 20 20 19 18 18 16 15 16 16 14 13 13 13 11 9 7 8
4 4 5 6 4 5 6 5 4 2 2 7 6 4 5 3 1 2 1 1 3 4 5 6 7 7 6 6 6 6 7 8 7 6 6 6 5 3 4 4 2 3 4 4 5 8 8 6 4 3 3 3 7 9 11 13 15 15 17 17 17 18 18 19 20 20 21 21 21 22 22 22 22 20 17 17 18 17 15 14 14 13 12 10 9 9
4 5 5 4 1 3 4 2 1 1 4 8 6 3 4 5 4 1 1 1 2 1 2 4 5 6 6 5 5 5 6 6 6 5 5 5 5 4 3 3 3 4 4 4 5 6 7 8 6 5 5 3 6 8 10 12 14 15 16 16 17 18 19 20 21 21 21 22 22 22 24 25 24 21 18 18 19 17 16 15 15 14 13 11 11 11
2 0 1 1 0 1 1 1 3 2 4 6 6 4 5 5 4 2 2 2 2 3 3 3 4 5 5 5 4 2 3 5 5 4 4 4 4 4 4 5 6 6 6 7 7 8 8 9 7 7 7 5 5 8 10 12 13 15 16 16 16 17 19 20 21 22 22 22 23 22 24 26 25 21 19 20 20 18 17 16 16 15 14 13 13 13
2 4 2 2 2 2 3 3 4 4 5 5 4 5 5 4 4 4 3 3 4 5 4 3 4 5 4 4 4 3 3 4 5 5 4 4 4 4 4 5 6 6 7 8 10 11 11 11 10 9 9 8 7 9 11 12 14 15 17 17 16 17 19 20 21 22 22 22 23 22 23 26 27 23 20 21 20 18 18 17 16 16 15 15 15 14
6 6 4 3 2 3 4 3 4 4 4 4 3 4 4 4 5 5 4 5 5 4 4 3 3 4 4 3 4 5 5 6 6 6 5 5 5 4 4 5 6 7 8 9 11 12 12 12 11 12 12 12 10 9 11 13 15 16 16 17 17 17 20 20 21 22 22 22 23 23 23 27 28 24 21 22 20 17 17 18 17 16 16 16 16 15
1 2 3 4 4 5 3 4 7 5 3 2 0 1 3 3 4 3 4 4 3 3 3 2 2 3 4 4 5 5 6 6 6 6 6 6 5 5 4 6 7 8 8 9 10 11 11 11 12 14 15 16 16 15 13 13 15 15 16 17 18 18 21 22 22 22 22 21 22 23 23 26 28 25 24 25 22 18 18 18 17 17 17 17 17 16
3 1 2 2 3 6 4 4 6 4 3 2 2 0 3 3 3 2 3 4 4 4 4 3 4 4 5 5 5 5 6 6 6 6 7 6 6 5 6 7 9 9 10 10 10 10 10 11 13 15 16 17 18 17 17 16 15 15 16 16 18 19 21 22 22 22 22 21 21 23 23 24 27 27 26 26 23 19 19 20 19 18 18 17 16 17
4 4 3 3 4 3 1 2 3 0 2 2 2 2 2 1 2 3 2 3 5 6 5 5 5 5 6 6 6 6 7 7 7 7 7 7 6 7 7 9 10 11 12 11 11 11 12 13 14 17 18 19 19 18 19 19 17 17 17 16 17 20 22 22 22 22 23 21 21 24 24 23 26 27 27 28 25 19 19 20 18 18 19 17 15 16
4 4 3 4 2 1 2 2 2 0 2 2 2 4 4 4 5 7 6 4 5 6 5 5 6 7 7 7 8 8 8 8 8 8 7 7 8 9 10 11 12 12 12 12 12 13 14 15 16 18 19 20 20 19 19 19 18 18 17 16 17 19 21 23 21 21 23 22 22 26 26 24 26 27 27 28 26 21 21 20 15 15 18 17 15 15
Wind_Direction
172 167 159 176 216 187 215 218 174 152 67 46 327 313 40 103 104 109 122 148 120 108 231 223 162 148 148 155 166 169 164 166 161 153 163 159 159 180 172 164 163 165 160 141 142 150 142 136 135 127 119 111 98 85 81 78 67 62 56 51 45 33 32 29 26 28 28 25 17 15 13 21 40 36 40 45 29 32 33 25 29 24 22 25 21 30
101 37 199 94 61 50 356 333 64 49 27 47 4 325 358 70 97 109 114 121 108 181 213 208 165 151 148 157 163 163 161 172 171 162 174 169 165 180 175 167 159 161 158 143 148 154 145 140 138 131 124 116 103 92 88 85 79 76 66 58 52 38 39 38 32 31 34 36 26 20 13 7 35 51 41 41 27 25 38 32 30 25 20 21 22 29
345 189 65 64 67 52 354 356 43 33 2 34 358 300 340 49 82 107 112 113 103 305 88 57 275 145 139 151 154 165 168 171 174 166 172 169 165 179 177 163 151 154 155 153 159 156 150 147 141 137 128 117 112 108 102 98 90 84 75 65 61 48 46 43 34 35 30 28 28 30 31 18 33 52 39 48 35 18 44 46 31 24 23 18 19 26
267 82 58 59 71 62 23 358 8 16 36 71 57 300 333 69 89 120 123 128 143 162 115 173 234 125 126 147 151 170 170 161 174 168 163 163 169 188 179 156 154 161 160 168 166 150 149 147 141 140 130 125 128 114 105 108 101 92 84 74 74 60 54 49 37 38 29 22 21 360 10 32 45 46 23 36 37 14 37 49 34 23 24 19 15 21
70 68 59 57 57 48 53 18 334 335 110 127 119 273 287 108 106 100 94 119 171 145 140 186 202 123 130 151 144 155 170 158 163 165 160 159 165 177 169 158 166 165 158 175 170 146 149 148 143 142 135 136 130 108 104 116 113 109 103 90 88 75 63 55 38 37 34 33 33 7 5 29 47 52 35 28 25 10 22 36 35 30 25 21 16 15
64 79 79 45 19 26 62 52 314 333 44 83 155 187 245 52 61 45 67 45 340 93 135 191 157 132 137 151 129 136 172 151 144 171 163 153 157 159 158 157 158 151 152 172 171 150 151 149 144 142 142 143 130 116 120 125 122 120 115 105 99 88 73 61 42 38 40 44 40 31 33 28 29 47 46 37 22 8 20 21 15 31 32 25 19 13
116 121 110 29 8 52 55 232 227 348 48 77 120 167 183 72 64 3 38 54 332 36 52 23 336 136 122 39 42 55 177 143 137 184 166 153 157 158 163 157 147 144 148 164 170 155 151 148 145 146 151 147 134 131 130 129 132 127 122 113 104 95 79 69 53 45 49 54 45 38 44 31 33 44 41 63 44 2 28 26 352 6 49 39 21 14
122 131 115 37 356 87 142 261 79 19 51 69 40 41 47 82 100 54 47 53 328 359 12 343 312 83 79 1 35 38 349 95 108 187 173 165 161 164 167 153 149 145 142 160 171 155 148 146 148 152 154 145 137 139 137 137 139 132 127 118 111 105 88 76 64 58 55 56 50 43 46 34 36 35 12 53 56 351 22 55 2 356 33 42 26 16
40 3 82 81 324 81 81 39 65 61 59 55 31 41 56 67 90 100 86 99 190 140 344 308 303 68 57 336 49 56 3 360 9 353 327 188 157 151 159 143 142 143 142 158 162 148 146 146 150 154 149 143 142 145 143 143 144 138 133 125 118 113 99 87 73 68 58 54 59 52 43 33 36 38 15 25 49 2 12 65 41 4 12 25 27 23
50 12 29 115 236 39 51 47 75 82 75 54 23 29 78 66 36 66 80 22 123 112 94 343 331 68 81 7 50 58 28 14 355 352 340 304 159 121 123 136 134 138 143 152 155 149 146 143 147 150 145 143 146 149 144 143 148 143 138 134 126 116 105 98 82 74 66 57 65 58 41 30 31 46 38 17 8 23 33 43 45 35 22 19 21 26
105 112 327 95 48 37 38 25 60 81 78 60 25 3 71 93 42 48 71 46 20 68 87 83 52 60 102 103 122 184 139 113 73 319 4 316 302 107 117 149 138 137 139 145 152 146 141 142 147 148 146 149 151 151 147 148 156 152 144 140 128 119 112 104 89 79 74 65 68 61 49 38 29 33 47 35 2 9 46 42 23 25 36 29 16 20
178 180 156 73 47 30 32 12 52 90 83 70 38 17 28 86 95 57 40 25 44 67 68 62 50 45 48 78 87 172 168 149 166 172 142 260 271 95 107 156 137 136 138 145 150 140 137 143 148 151 152 155 156 156 158 161 165 158 148 145 135 127 123 113 98 83 74 71 67 57 54 51 40 31 30 42 29 9 26 36 18 8 17 25 13 14
292 24 75 115 92 263 296 343 79 90 76 338 250 126 85 19 103 84 45 15 350 46 52 37 51 45 17 342 38 111 155 166 165 156 165 212 237 88 94 112 117 139 147 145 140 135 142 150 153 158 158 160 164 166 168 169 168 158 150 153 145 137 134 125 114 97 81 72 65 54 50 49 49 46 31 35 45 26 17 24 25 9 2 6 7 16
308 20 338 239 102 163 282 306 41 48 101 208 249 149 118 83 62 77 92 102 307 286 237 166 140 94 12 293 78 103 122 153 174 160 158 165 124 99 108 101 97 124 128 127 128 136 151 160 162 163 161 164 169 172 172 171 170 159 157 161 150 144 143 134 126 109 94 79 69 62 52 48 48 51 50 45 39 28 13 9 34 33 1 356 2 14
290 330 272 346 54 16 300 350 358 341 93 170 212 227 211 37 81 78 77 124 145 288 226 160 130 110 57 29 100 108 113 138 195 155 137 117 111 107 101 104 106 112 115 123 139 151 158 167 169 165 163 167 170 173 174 171 170 163 162 165 153 150 149 139 135 117 102 88 75 73 63 58 55 49 55 57 44 30 14 359 21 42 20 1 359 3
311 29 92 58 34 286 328 13 325 316 358 198 221 212 353 7 59 107 50 88 146 208 189 133 74 75 38 6 14 116 118 122 182 144 144 129 118 105 98 108 120 143 144 148 153 157 159 167 173 167 164 169 170 172 174 170 168 166 165 165 158 155 149 142 138 121 108 99 84 80 70 65 63 55 54 52 45 45 25 6 13 24 20 16 2 356
331 309 100 155 221 236 2 339 324 346 339 310 331 61 39 18 46 117 79 97 154 130 60 107 88 91 151 29 303 138 129 153 182 136 131 114 108 97 104 127 137 110 145 153 148 154 161 167 174 170 168 171 170 172 174 170 168 169 168 163 159 155 147 143 140 128 119 111 97 86 78 72 66 59 52 40 38 47 37 23 27 23 14 12 6 0
336 287 192 187 207 111 59 287 284 342 323 331 9 5 339 34 44 71 119 148 151 105 58 63 97 103 141 107 295 162 130 159 164 119 111 109 117 116 116 140 123 74 11 158 145 149 156 165 169 169 174 174 170 172 171 166 166 169 168 162 160 157 150 147 142 134 130 123 112 102 91 78 69 61 49 41 33 30 34 32 41 41 23 8 5 7
124 284 294 320 359 94 182 268 249 213 254 7 354 316 321 349 349 355 20 3 16 79 99 87 99 87 30 103 169 193 134 128 120 138 144 131 149 160 149 148 122 110 230 238 157 146 151 165 167 168 178 175 170 170 166 163 166 167 166 162 160 157 152 150 145 142 141 134 122 114 107 90 76 66 53 49 34 30 36 32 35 35 32 25 11 2
121 17 321 305 346 45 300 281 303 251 207 137 310 308 4 352 340 353 347 352 1 23 33 59 101 61 29 101 124 140 141 136 139 168 143 124 176 194 153 150 153 160 186 198 172 153 155 167 166 171 181 173 167 168 164 165 168 166 165 163 159 157 154 152 150 149 142 132 126 123 117 99 83 71 59 51 38 45 43 29 31 19 17 33 18 358
334 58 285 274 311 346 277 285 6 347 338 10 355 11 21 359 2 11 312 351 356 12 26 12 38 53 35 32 44 68 113 134 146 156 122 124 190 207 139 150 180 161 167 188 178 157 158 165 163 171 180 170 165 168 167 169 169 166 167 163 159 159 156 154 154 150 137 130 130 129 123 111 98 81 69 60 43 55 59 37 34 17 12 28 20 7
189 303 305 297 303 277 269 21 6 353 351 344 340 2 36 25 4 345 10 16 357 12 50 5 1 47 4 349 38 52 42 39 116 142 148 154 165 148 135 144 80 116 157 190 177 159 164 166 165 172 175 170 169 172 173 172 168 168 168 163 161 162 159 158 158 150 140 140 138 134 132 126 115 95 78 74 53 53 65 51 32 20 22 24 17 16
62 350 312 293 285 276 113 91 26 348 332 302 310 2 3 33 39 357 6 16 348 356 30 343 356 89 275 312 67 80 28 6 53 131 146 149 118 97 112 127 108 113 171 204 178 162 166 166 170 174 174 175 177 177 176 172 170 170 167 162 163 166 163 159 157 151 146 147 145 141 142 135 125 115 97 88 73 57 61 54 32 27 34 29 20 17
37 284 277 285 296 289 137 126 122 59 298 267 304 357 332 353 47 41 2 358 344 347 1 343 3 92 267 326 70 100 94 40 34 80 113 115 98 87 98 122 140 141 175 208 183 159 164 166 171 178 180 183 181 177 176 173 169 167 165 163 165 167 162 153 150 150 148 149 148 147 147 141 134 127 113 98 92 75 60 58 42 35 38 34 29 22
319 245 240 269 284 256 224 158 131 129 293 310 354 303 293 354 8 44 345 313 357 357 355 348 1 63 337 331 31 81 83 111 69 61 78 101 102 76 78 107 124 109 132 211 175 166 175 169 177 189 188 186 180 175 176 172 167 164 165 164 162 160 154 149 151 153 151 151 151 151 151 147 143 136 126 114 104 91 68 67 51 45 48 35 30 27
303 292 279 268 277 284 323 7 82 290 301 359 317 294 295 324 342 31 356 312 4 1 346 348 2 10 342 324 7 68 35 7 60 78 80 97 108 92 66 84 79 81 82 29 33 314 210 178 190 196 185 181 177 173 174 172 165 163 164 162 158 156 152 151 157 155 152 154 154 155 156 153 151 145 137 133 121 106 87 77 50 50 59 39 29 31
295 291 290 283 293 307 311 314 242 219 244 229 252 273 269 256 302 60 359 314 340 337 320 352 360 344 335 332 2 59 51 2 42 100 105 97 117 126 109 106 95 89 93 85 81 331 274 229 219 198 176 174 173 170 173 172 166 162 161 158 156 156 155 157 161 157 156 161 158 159 163 158 155 152 146 144 135 118 106 95 64 59 60 45 36 33
269 270 273 273 274 273 273 281 269 250 257 313 308 299 302 264 269 90 92 299 308 302 306 354 348 330 332 345 12 50 43 358 23 66 54 68 108 130 131 138 151 162 190 182 168 199 217 220 224 191 167 168 168 169 172 171 165 161 160 159 158 159 160 161 163 161 161 164 162 162 165 162 158 155 151 148 141 128 117 108 89 80 70 56 50 39
269 269 278 282 278 278 284 287 287 287 291 295 295 299 293 272 270 242 212 247 275 301 313 333 337 331 336 352 41 60 23 342 17 48 50 85 104 118 121 125 163 178 186 196 193 196 201 207 210 177 164 167 167 168 172 170 164 159 160 162 160 161 163 164 165 165 164 165 166 166 165 164 162 158 157 155 147 140 134 125 110 100 87 71 65 52
327 278 294 293 285 287 287 279 279 285 284 276 278 281 277 280 283 268 249 243 4 329 313 328 336 333 342 352 32 62 22 330 27 54 43 61 53 51 81 77 20 215 187 193 191 185 189 199 193 172 169 172 170 171 174 171 164 161 164 163 160 162 165 166 168 168 168 167 167 167 166 166 165 163 163 161 153 150 148 141 130 117 103 86 75 63
102 287 313 310 297 295 290 285 283 283 281 278 272 266 267 283 294 293 301 348 358 316 321 338 327 324 10 358 3 55 44 333 62 69 46 48 36 20 59 86 69 252 180 178 176 164 169 194 188 176 179 180 177 176 177 172 165 164 166 163 162 165 166 168 171 171 172 171 168 169 169 167 167 169 168 164 160 159 156 150 144 129 113 102 90 76
183 268 301 290 278 282 283 282 282 284 287 284 280 283 287 291 294 295 305 319 308 294 325 327 309 318 66 328 327 31 41 35 65 64 59 62 54 20 29 70 61 28 54 91 144 153 162 192 191 179 186 189 185 183 181 175 168 167 168 166 164 165 167 171 173 173 175 173 170 171 171 169 171 171 170 169 166 160 159 159 156 140 125 114 103 90
243 271 279 264 266 276 271 270 277 288 293 287 299 321 320 308 300 290 288 297 280 217 183 270 254 167 156 298 336 18 16 36 62 59 59 60 58 43 31 35 37 29 30 28 20 70 140 192 193 181 189 195 193 191 187 179 173 171 170 167 163 165 169 172 173 176 178 175 173 175 174 173 174 171 171 174 167 159 164 167 157 145 134 125 115 102
247 266 273 269 274 281 281 282 283 285 281 279 311 319 307 298 293 288 293 302 290 274 294 279 248 163 104 4 13 38 19 50 71 72 68 53 44 48 40 32 35 31 25 19 15 25 27 319 213 179 188 201 199 195 190 182 177 173 169 166 164 166 170 172 175 178 179 177 178 179 177 177 177 172 171 172 166 163 169 167 154 149 145 136 129 119
224 237 256 270 261 266 287 290 274 256 258 262 282 293 298 305 303 303 314 323 322 325 315 295 295 88 96 49 350 113 113 88 81 76 71 59 46 52 49 35 39 43 36 27 20 28 20 339 299 185 181 203 203 193 190 184 177 173 171 168 167 169 172 174 176 178 179 180 181 180 180 182 179 173 170 170 169 169 168 163 159 162 160 146 135 128
241 242 241 263 261 255 270 270 266 284 288 272 241 238 269 313 307 306 311 312 320 324 314 312 336 46 108 152 106 112 124 106 89 78 70 64 49 43 48 42 46 57 65 61 42 59 75 318 287 210 181 201 202 190 191 187 178 176 175 172 171 173 175 176 178 179 180 181 183 182 184 185 180 175 173 170 171 172 165 164 169 170 164 152 139 133
242 258 248 251 256 259 264 259 268 290 288 284 280 258 141 283 300 320 330 298 303 303 302 331 338 340 13 3 105 124 135 122 98 77 58 59 50 27 29 32 27 39 70 86 79 134 151 204 244 199 183 200 200 191 192 187 180 179 179 177 177 178 178 180 181 181 181 183 185 184 185 187 182 178 176 173 173 174 167 167 174 172 169 164 150 142
227 254 252 246 245 251 265 270 276 276 268 288 20 37 29 359 20 28 11 307 312 310 269 284 302 311 5 330 356 106 164 173 133 97 52 51 46 26 23 17 8 27 52 62 51 49 101 167 190 175 182 202 199 193 192 186 182 184 183 183 183 183 183 184 183 182 184 186 186 183 184 187 184 180 180 177 175 173 168 168 174 175 177 175 160 154
221 247 253 252 253 250 252 261 262 260 271 284 359 84 69 86 79 39 296 292 2 21 31 2 339 357 24 350 353 360 266 236 144 101 77 63 42 27 32 14 355 16 39 36 31 35 21 264 175 165 182 203 199 194 193 187 185 188 190 189 189 189 189 189 187 185 186 186 186 182 183 185 184 182 184 183 177 173 168 168 174 178 179 178 169 169
226 237 245 244 248 252 254 260 261 259 301 330 65 112 108 96 87 306 275 310 31 30 31 26 18 18 8 347 344 357 353 25 108 101 99 102 72 32 32 21 358 11 28 27 18 1 265 196 165 173 188 200 202 199 195 192 190 193 196 194 194 197 196 192 190 188 185 185 185 183 182 184 183 181 186 187 179 171 169 170 173 174 177 183 183 179
234 229 242 238 236 244 245 251 262 272 11 15 19 71 78 87 170 264 269 359 33 37 47 48 47 36 9 2 31 56 50 74 108 113 101 104 97 57 30 24 17 22 29 27 17 358 321 133 117 200 196 192 202 205 202 198 195 198 202 199 198 203 201 194 192 189 184 185 185 183 181 182 181 179 183 187 179 171 172 174 172 172 179 193 191 171
221 215 234 234 234 242 238 238 248 240 1 347 338 19 41 12 264 191 184 282 33 56 65 58 55 56 46 45 57 69 67 72 88 98 86 86 98 94 64 40 24 26 31 26 25 17 360 7 37 337 228 193 200 207 208 205 202 203 208 206 203 205 203 195 192 189 185 185 185 182 179 177 177 178 182 185 179 173 174 176 173 173 179 187 180 159
206 201 225 228 236 248 241 247 257 231 23 350 339 23 35 16 71 121 110 80 61 67 77 69 51 41 47 61 64 66 70 67 63 61 54 53 61 80 94 88 55 35 27 10 27 27 1 352 26 7 313 224 203 214 219 215 209 209 215 216 210 207 203 196 191 189 188 187 186 182 177 176 180 184 186 184 178 175 176 176 174 176 180 181 173 164
210 215 229 217 198 249 244 242 254 147 45 20 14 50 60 56 77 102 329 41 57 44 73 85 70 44 33 42 53 65 79 72 50 36 34 28 15 6 32 54 35 21 13 3 24 34 3 349 359 342 310 260 212 221 226 223 220 218 222 225 218 209 202 195 191 191 190 189 187 182 178 178 183 187 188 182 177 176 178 177 175 177 182 180 175 174
255 323 283 254 172 297 294 80 91 91 69 49 43 59 67 59 54 29 9 48 62 40 42 65 76 61 37 20 11 18 68 61 32 9 7 359 342 338 348 0 358 355 356 355 2 11 356 338 332 319 301 279 245 235 233 231 229 225 227 229 224 212 202 195 194 195 193 191 189 182 175 176 182 186 185 180 178 179 179 179 178 179 182 181 179 183
149 109 116 290 318 301 261 192 147 107 87 82 64 57 60 54 47 40 44 67 65 45 42 47 46 39 24 1 348 348 20 26 357 340 341 327 316 336 356 350 341 345 353 353 353 353 343 329 322 314 301 287 262 241 236 239 239 234 231 230 227 215 203 199 200 199 195 193 190 181 172 174 181 186 183 177 178 182 182 182 183 182 183 185 186 191
181 164 188 237 259 266 256 186 135 110 109 113 96 92 96 75 60 52 49 63 61 30 23 34 14 353 339 335 343 348 352 346 332 327 325 317 321 342 347 333 330 340 348 347 343 339 332 324 321 319 316 314 301 272 250 242 243 243 237 230 224 213 205 205 207 202 196 193 189 182 177 179 182 183 178 173 178 185 184 185 188 187 186 189 191 194
160 175 224 231 233 247 241 105 92 90 109 128 132 110 99 73 76 87 68 50 24 330 329 352 336 326 326 331 339 337 325 319 318 317 316 319 326 331 327 325 329 332 333 332 327 324 322 321 320 319 318 316 311 301 285 264 251 248 243 233 224 214 208 209 211 204 198 195 190 186 184 183 182 181 175 173 180 187 186 188 192 191 190 194 197 198
107 200 243 228 246 260 246 142 123 129 151 191 252 53 72 56 41 43 29 359 322 307 317 331 332 331 324 317 314 307 299 301 306 306 307 311 313 314 317 320 321 317 315 314 311 311 314 313 311 310 306 302 302 302 297 288 274 260 252 241 230 220 211 210 209 203 198 196 192 189 188 185 184 182 176 174 181 187 185 188 194 194 193 197 198 198
199 232 234 233 245 265 297 93 102 218 249 213 195 167 125 99 329 318 312 302 303 311 321 322 316 314 310 306 307 304 299 299 300 298 298 297 297 303 309 308 306 302 299 299 301 300 302 303 305 305 301 297 297 297 294 292 286 274 264 252 239 226 214 208 207 200 194 194 193 191 190 188 186 184 176 176 182 183 176 180 190 194 193 194 193 193
274 264 247 258 266 119 119 124 122 248 283 268 217 203 187 185 218 230 228 249 287 295 302 313 314 312 311 309 308 305 298 297 298 296 293 293 294 296 293 288 286 288 292 297 300 296 294 295 295 295 293 291 290 289 286 286 285 280 272 259 246 233 217 208 205 198 193 196 196 194 194 192 188 184 179 180 183 178 167 167 172 175 179 183 184 187